星链-5191 (STARLINK-5191 )

导读 | 豆包AI

STARLINK-5191是美国太空探索技术公司SpaceX星链卫星互联网项目的一员,于2022年12月17日发射升空,属于星链星座部署中的批量组网卫星,运行在近地轨道,主要为全球范围内用户提供低延迟宽带互联网接入服务,进一步扩充了星链星座的在轨服务规模,助力星链完成全球覆盖的组网目标。

基本信息
目录编号:
54763
目录名称:
STARLINK-5191
国际标识:
2022-175F
轨道中心:
EARTH
卫星名称:
星链-5191
卫星全名:
星链-5191 (STARLINK-5191 )
卫星状态:
在轨 (已飞行1184 天)
发射日期:
2022-12-17 UTC
国别 :
美国 (US)
星等 :
--
轨道信息
数据来源 国际轨道数据 AOE轨道数据
星历时间 2026-03-15T11:59:17+0800
8小时前
查看轨道信息
2026-03-11T17:00:00+0800
4天前
查看轨道信息
半长轴 6917.879km 6917.878km
偏心率 0.0001383 0.000136
轨道倾角 53.219° 53.216°
近地点辐角 87.144° 67.980°
升交点赤经 19.684° 36.704°
平近点角 272.971° 207.998°
近地点 538.785km 538.8km
远地点 540.699km 540.682km
周期 95.438分钟 95.437分钟
每日圈数 15.088406 15.08841
详细信息
固有亮度:
5
最大亮度:
2.5
卫星平台:
Starlink v1.5
覆盖范围:
全球
运营商:
太空探索技术公司
运营商所在国:
美国
制造商(研发单位):
太空探索技术公司
制造商所在国:
美国
使用方式:
暂无
卫星简介
星链(Starlink)计划是由太空探索技术公司(SpaceX)提出的一个巨型低轨卫星互联网星座项目,计划在2019年至2024年间在太空搭建由约1.2万颗卫星组成的“星链”网络,其中1584颗将部署在地球上空550千米处的近地轨道,并从2020年开始工作。该卫星仍在工作。
2D轨道图
3D轨道图
轨道高度分析图
轨道倾角分析图
轨道综合分析图
查看轨道综合分析图